Вернуться в каталог

INNOSAT16

АктивенНаукаSSO
NORAD 64878·PAYLOAD·🇲🇾 Malaysia
Это название спутника еще не подтверждено официальными источниками.

Запущен Jul 25, 2025 с Vostochny Cosmodrome

Loading…

Ближайшие Пролёты (ближайшие 24 часа)

TLE

СвежийSource: Space-Track

Эпоха: Sep 14, 2026, 13:56 UTC

1 64878U 25155C   26257.58082536  .00004613  00000-0  18046-3 0  9996
2 64878  97.4679 224.5315 0008840 222.8877 137.1673 15.26305921 94303

Отслеживайте INNOSAT16 в реальном времени с AllMySat

Download on the App Store